[[{"header":{"parameterUnit":"m.s-1","parameterCategory":1,"la1":30.2992,"la2":30.254,"lo1":-89.0895,"lo2":-89.0443,"dy":0.0025,"dx":0.0025,"nx":19,"ny":19,"refTime":"2026-04-15T09:00:00:Z","depth":0,"parameterNumber":2,"parameterNumberName":"U-component_of_WINDS"},"data":[0,0,0,-0.686,-0.6857,-0.6711,-0.6711,-0.6539,-0.6538,0,0,0,0,0,0,0,0,0,0,0,-0.6915,-0.6914,-0.686,-0.6857,-0.6711,-0.6711,-0.654,-0.6538,0,0,0,0,0,0,0,0,0,0,0,-0.6915,-0.6915,-0.6914,-0.6856,-0.6712,-0.6711,-0.654,-0.6644,0,0,0,0,0,0,0,0,0,0,-0.6782,-0.6846,-0.6915,-0.6914,-0.6856,-0.6712,-0.671,-0.6649,-0.6637,-0.6613,0,-0.6597,0,-0.6565,-0.6528,-0.6527,0,0,0,-0.6847,-0.6855,-0.6805,-0.6914,-0.6854,-0.6712,-0.6774,-0.6642,-0.6629,-0.6598,-0.6594,-0.6587,-0.6562,-0.6527,-0.6526,-0.6422,-0.6422,0,0,-0.6855,-0.6895,-0.6814,-0.6798,-0.6824,-0.6779,-0.677,-0.6634,-0.6631,-0.6593,-0.6583,-0.6559,-0.6526,-0.6525,-0.6422,-0.6422,0,0,0,-0.6885,-0.6901,-0.6854,-0.6805,-0.6778,-0.6775,-0.6765,-0.6637,-0.6619,-0.6581,-0.6557,-0.6525,-0.6523,-0.6422,-0.6422,-0.646,0,0,0,-0.6889,-0.6918,-0.6858,-0.688,-0.6781,-0.6707,-0.6771,-0.6628,-0.6612,-0.6558,-0.6525,-0.6522,-0.6422,-0.6422,-0.6459,-0.647,0,0,0,-0.692,-0.6921,-0.6905,-0.6883,-0.6822,-0.6708,-0.6681,-0.6624,-0.6598,-0.6527,-0.6521,-0.6422,-0.6422,-0.6458,-0.6469,-0.6454,0,0,0,-0.6964,-0.6939,-0.6906,-0.6868,-0.6824,-0.6733,-0.6682,-0.6612,-0.6556,-0.6524,-0.6422,-0.6422,-0.6457,-0.6468,-0.6454,-0.6449,-0.6452,0,0,-0.6954,-0.694,-0.6914,-0.688,-0.6806,-0.6752,-0.6682,-0.6592,-0.6548,-0.6466,-0.6463,-0.6459,-0.6469,-0.6454,-0.6451,-0.6453,0,0,0,-0.6924,-0.6907,-0.6878,-0.6828,-0.6761,-0.6702,-0.662,-0.6586,-0.6515,-0.6515,-0.6449,-0.6453,-0.6443,-0.6439,-0.6441,-0.6429,-0.6422,-0.6422,-0.6422,-0.6966,-0.6913,-0.6867,-0.6796,-0.6748,-0.6663,-0.6618,-0.6557,-0.6516,-0.6502,-0.6477,-0.6481,-0.6478,-0.6479,-0.6468,-0.647,-0.6471,-0.6471,-0.6471,-0.6946,-0.6913,-0.686,-0.6797,-0.6739,-0.6684,-0.6601,-0.6574,-0.6512,-0.6496,-0.6484,-0.647,-0.6484,-0.647,-0.6473,-0.6473,-0.6472,-0.6472,-0.6472,-0.6968,-0.6942,-0.6903,-0.6825,-0.6769,-0.6697,-0.6642,-0.6591,-0.6542,-0.6531,-0.6498,-0.6497,-0.649,-0.6519,-0.6519,-0.6519,-0.6519,-0.6519,-0.6519,-0.7005,-0.696,-0.6921,-0.6847,-0.6807,-0.6749,-0.6663,-0.6621,-0.6562,-0.6529,-0.6529,-0.6489,-0.6495,-0.6498,-0.6519,-0.6519,-0.6519,-0.6519,-0.6519,-0.7005,-0.6997,-0.6936,-0.6897,-0.6805,-0.6753,-0.6689,-0.6609,-0.6568,-0.6541,-0.6503,-0.6517,-0.6497,-0.6495,-0.6497,-0.6516,-0.6516,-0.6516,-0.6516,-0.7022,-0.7008,-0.6934,-0.6875,-0.681,-0.6746,-0.6677,-0.6608,-0.6536,-0.6507,-0.6496,-0.6494,-0.6495,-0.6474,-0.6473,-0.6473,-0.6486,-0.6486,-0.6486,-0.7018,-0.6995,-0.6947,-0.6879,-0.6803,-0.6738,-0.6671,-0.6602,-0.6518,-0.6484,-0.6482,-0.6483,-0.6479,-0.6481,-0.6447,-0.6446,-0.6446,0,0]},{"header":{"parameterUnit":"m.s-1","parameterCategory":1,"la1":30.2992,"la2":30.254,"lo1":-89.0895,"lo2":-89.0443,"dy":0.0025,"dx":0.0025,"nx":19,"ny":19,"refTime":"2026-04-15T09:00:00:Z","depth":0,"parameterNumber":3,"parameterNumberName":"V-component_of_WINDS"},"data":[0,0,0,4.8747,4.8748,4.8799,4.8799,4.8872,4.8873,0,0,0,0,0,0,0,0,0,0,0,4.8739,4.874,4.8747,4.8748,4.8799,4.8799,4.8872,4.8873,0,0,0,0,0,0,0,0,0,0,0,4.8739,4.874,4.8741,4.8749,4.8799,4.8799,4.8872,4.883,0,0,0,0,0,0,0,0,0,0,4.878,4.8779,4.8739,4.8741,4.8749,4.8799,4.8799,4.8828,4.8833,4.8854,0,4.8876,0,4.8876,4.8879,4.8879,0,0,0,4.8743,4.8776,4.8783,4.8741,4.875,4.8799,4.8774,4.8831,4.8836,4.8861,4.8877,4.8879,4.8877,4.8879,4.888,4.9026,4.9026,0,0,4.874,4.8751,4.878,4.8787,4.8782,4.8773,4.8776,4.8834,4.8852,4.8877,4.8881,4.8879,4.888,4.8881,4.9025,4.9026,0,0,0,4.8736,4.875,4.8755,4.8784,4.8793,4.8774,4.8778,4.8849,4.885,4.8882,4.8879,4.888,4.8882,4.9024,4.9025,4.9085,0,0,0,4.8734,4.8747,4.8755,4.8762,4.8792,4.8822,4.8792,4.8846,4.8853,4.8879,4.8881,4.8882,4.9022,4.9024,4.9081,4.9111,0,0,0,4.8733,4.8747,4.8757,4.8763,4.8785,4.8821,4.8825,4.8847,4.8852,4.8879,4.8883,4.9022,4.9024,4.9077,4.9105,4.9154,0,0,0,4.8735,4.8807,4.8758,4.8837,4.8785,4.8858,4.8825,4.8878,4.8909,4.8881,4.9023,4.9025,4.9076,4.9101,4.915,4.9197,4.9218,0,0,4.8832,4.8819,4.8865,4.8823,4.8908,4.8849,4.8943,4.8959,4.895,4.9,4.9004,4.9082,4.9105,4.9153,4.9329,4.9346,0,0,0,4.89,4.8933,4.8953,4.8985,4.9001,4.9016,4.9017,4.9024,4.9067,4.8979,4.9112,4.9125,4.9153,4.9175,4.9189,4.9213,4.9035,4.9035,4.9035,4.9052,4.904,4.9115,4.9109,4.914,4.9142,4.9165,4.9173,4.9149,4.9181,4.9196,4.9305,4.9331,4.9341,4.9366,4.9219,4.9219,4.922,4.922,4.9194,4.9239,4.9208,4.9271,4.9256,4.9308,4.9313,4.9294,4.9339,4.9292,4.9315,4.9265,4.936,4.9381,4.9224,4.9223,4.9223,4.9222,4.9222,4.9293,4.9312,4.9321,4.9367,4.9403,4.9393,4.944,4.9424,4.9409,4.9433,4.9448,4.9447,4.9444,4.9441,4.9441,4.9442,4.9442,4.9442,4.9443,4.9392,4.94,4.9442,4.9467,4.9486,4.951,4.9514,4.9532,4.9547,4.9532,4.9532,4.9505,4.9372,4.9339,4.9449,4.9447,4.9447,4.9446,4.9446,4.9541,4.9506,4.957,4.959,4.9619,4.9658,4.9638,4.9676,4.9689,4.9712,4.9681,4.9585,4.957,4.9558,4.9531,4.9683,4.9683,4.9683,4.9683,4.9625,4.9617,4.9681,4.9714,4.9744,4.9734,4.9807,4.9812,4.981,4.9817,4.9792,4.9755,4.9744,4.9735,4.972,4.9694,4.9885,4.9885,4.9885,4.9716,4.9711,4.9777,4.9777,4.98,4.9819,4.9888,4.9926,4.9916,4.9893,4.9822,4.9814,4.9753,4.9734,4.9709,4.9685,4.9638,0,0]}]]